DECAYED

STARLINK-2062, 47670 (Decayed)

Orbit data source: Space-Track

STARLINK-2062, 47670 was a payload satellite owned by SpaceX/Seattle (US) in LEO that was launched on Tue, 16 Feb 2021 UTC via an FALCON 9 launch vehicle from the Air Force Eastern Test Range (AFETR). Payload-class satellites include a variety of spacecraft equipped with specific instruments for various scientific and technological missions. These include communications satellites like Starlink; space stations such as the ISS; scientific satellites like the Hubble; Earth observation satellites from companies like Planet Labs, Umbra, and HawkEye 360; GPS; miniature CubeSats for education and research; and military/defense satellites.

Not visible in the next 10 days
Identifier
47670, 2021-012BC
Orbit
Decayed
Country
Flag of USUS
Related business
Manufacturer
SpaceX/Seattle
Mission
Decayed Commercial Communications
Bus & Motor
STARLINK, Unknown motor
Mass
260 kg wet, ~248 kg dry
Launch date (UTC)
2021-02-16 (5 years ago)
Launch vehicle
FALCON 9
Launch site
Air Force Eastern Test Range (AFETR)
Object type
Payload
Rocket body
Debris
Shape & HBR
Box + 1 Pan, 10.1 m
Radar Cross Section
13.562 m², Large (>1 m²)

Expand to show TLE details & history
Last TLE update: 9 months ago

TLE from 9 months ago
0 STARLINK-2062
1 47670U 21012BC  25084.21490936  .21435079  12603-4  57222-3 0  9991
2 47670  53.0275 131.0139 0005803 337.6475 135.0023 16.45378035227666
Epoch: 2025-03-25T05:09Z
TLE epoch observation values (Epoch: 2025-03-25T05:09:28.168Z)
Latitude
47.63374°
Longitude
-4.42281°
Altitude
159.439 km
Speed
7.815 km/s
True Right ascension
17h 03m 27s
True Declination
47° 26' 48"
Sunlit
Object was in daylight at epoch
Visualization orbit readout
Latitude
Unknown
Longitude
Unknown
Altitude
Unknown
Speed
Unknown
Apparent Right ascension
Unknown
Apparent Declination
Unknown
Sunlit
N/A
Visualization observer readout
Local Sidereal Time
11:56:59
Azimuth
Unknown
Elevation
Unknown
Doppler factor
Unknown
Orbital elements
Apogee altitude
155.616 km
Perigee altitude
148.037 km
Semi-major axis
6,529.963 km
Eccentricity
0.00058
Inclination
53.0275°
RAAN
131.0139°
Arg. of periapsis
337.6475°
True anomaly
135.04929°
Mean anomaly
135.0023°
Eccentric anomaly
135.0258°
Mean motion
4.11317 °/min
Orbital period
87.52 mins
BSTAR
0.00057222
Loading maneuver chart data...
Computing Atmospheric mass density...
Loading historical data...
Loading historical data...
Loading historical data...
Loading historical data...
Loading historical data...
Loading historical data...
Loading historical data...

Documentation

Showing up to 5 results
|